User: anonymous
Location: Caltech
(34.1382°N, 118.1253°W)
Time: 00:34:52
(UTC-07:00)
Language:

Cosmos 2322 - Orbit

View from above orbital plane
View from above orbital plane
View from above satellite
View from above satellite

Ground track
Ground track

The orbit data is extracted from the following two-line orbital elements,

1 23704U 95058A   14243.83145140 -.00000032  00000-0  82031-5 0   944
2 23704 070.9861 022.2579 0010703 207.8675 304.6402 14.13250494971674
Epoch (UTC): 31 August 2014 19:57:17
Eccentricity: 0.0010703
inclination: 70.9861°
perigee height: 840 km
apogee height: 856 km
right ascension of ascending node: 22.2579°
argument of perigee: 207.8675°
revolutions per day: 14.13250494
mean anomaly at epoch: 304.6402°
orbit number at epoch: 97167

The dashed part of the orbit path shows where the satellite is in the earth's shadow,  

DLR